Location: Melbourne
(37.8170°S, 144.9670°E)
Time: 10:25:32
(UTC+11:00)

Vanguard 1 Rocket - Visible Passes

Search period start: 02 March 2015 00:00
Search period end: 12 March 2015 00:00
Orbit: 656 x 4223 km, 34.3° (Epoch: 27 February)

Date Brightness Start Highest point End Pass type
(mag) Time Alt. Az. Time Alt. Az. Time Alt. Az.
02 Mar 11.2 01:24:27 21° ENE 01:24:27 21° ENE 01:32:40 10° E visible
02 Mar 10.3 03:41:44 44° N 03:47:47 52° NNE 04:02:54 10° E visible
02 Mar 9.6 05:59:01 15° WNW 06:17:45 74° N 06:28:39 10° E visible
03 Mar 10.6 02:34:32 42° NE 02:34:32 42° NE 02:50:55 10° E visible
03 Mar 9.9 04:51:49 32° NW 05:04:45 68° NNE 05:17:58 10° E visible
04 Mar 11.0 01:27:19 27° ENE 01:27:19 27° ENE 01:37:41 10° E visible
04 Mar 10.2 03:44:35 49° NNW 03:51:09 60° NNE 04:06:49 10° E visible
04 Mar 9.7 06:01:52 14° WNW 06:21:23 77° N 06:32:32 10° E visible
05 Mar 11.5 00:20:03 12° E 00:20:03 12° E 00:22:03 10° E visible
05 Mar 10.5 02:37:20 49° NNE 02:37:20 49° NNE 02:54:59 10° E visible
05 Mar 9.9 04:54:36 32° WNW 05:08:16 74° N 05:21:50 10° E visible
06 Mar 10.9 01:30:02 34° ENE 01:30:02 34° ENE 01:42:08 10° E visible
06 Mar 10.2 03:47:18 51° NW 03:54:30 66° NNE 04:10:40 10° E visible
06 Mar 9.7 06:04:35 13° W 06:25:01 78° N 06:36:23 10° E visible
07 Mar 11.4 00:22:42 17° E 00:22:42 17° E 00:27:34 10° E visible
07 Mar 10.4 02:39:58 57° NNE 02:40:16 57° NNE 02:58:54 10° E visible
07 Mar 9.9 04:57:15 31° WNW 05:11:47 77° N 05:25:40 10° E visible
07 Mar11.723:15:21E23:15:21E22:36:42Nvisible
08 Mar 10.8 01:32:37 40° ENE 01:32:37 40° ENE 01:46:15 10° E visible
08 Mar 10.1 03:49:53 52° NW 03:57:51 72° NNE 04:14:28 10° E visible
08 Mar 9.7 06:07:10 12° W 06:28:37 77° N 06:40:13 10° ENE visible
09 Mar 11.3 00:25:15 22° E 00:25:15 22° E 00:32:15 10° E visible
09 Mar 10.3 02:42:31 63° NNE 02:43:26 63° NNE 03:02:41 10° E visible
09 Mar 10.0 04:59:47 29° WNW 05:15:19 79° N 05:29:29 10° E visible
09 Mar11.523:17:52E23:17:52E22:41:13Nvisible
10 Mar 10.7 01:35:08 47° ENE 01:35:08 47° ENE 01:50:08 10° E visible
10 Mar 10.1 03:52:23 51° WNW 04:01:14 76° N 04:18:14 10° E visible
10 Mar 9.8 06:09:39 11° W 06:32:09 75° NNW 06:43:59 10° ENE visible
11 Mar 11.1 00:27:44 27° E 00:27:44 27° E 00:36:28 10° E visible
11 Mar 10.3 02:44:59 68° N 02:46:37 69° NNE 03:06:25 10° E visible
11 Mar 10.0 05:02:15 28° W 05:18:49 80° N 05:33:16 10° E visible
11 Mar 11.3 22:44:29 10° N 23:20:19 11° E 23:21:02 10° E visible
